Location: Newark
(58.8333°N, 23.5833°E)
Time: 17:15:50
(UTC+00:00)

METEOR M2 - Pass Details

Date: 16 December 2019
Orbit: 819 x 827 km, 98.5° (Epoch: 20 January)

Event Time Altitude Azimuth Distance (km) Brightness Sun altitude
Rises 05:58:36 0° 21° (NNE) 3,366 ? -8.2°
Reaches altitude 10° 06:01:27 10° 36° (NE) 2,429 ? -7.9°
Maximum altitude 06:05:41 23° 88° (E) 1,684 ? -7.4°
Drops below altitude 10° 06:09:53 10° 140° (SE) 2,416 ? -7.0°
Sets 06:12:42 0° 155° (SSE) 3,345 ? -6.7°
